[[{"header":{"parameterUnit":"m.s-1","parameterCategory":1,"la1":30.2991,"la2":30.254,"lo1":-89.0895,"lo2":-89.0444,"dy":0.0017,"dx":0.0017,"nx":28,"ny":28,"refTime":"2024-04-28T03:00:00:Z","depth":0,"parameterNumber":2,"parameterNumberName":"U-component_of_WINDS"},"data":[0,0,0,0,0,0,0,0,0,0,0,0,0,0,0,0,0,0,0,0,0,0,0,0,0,0,0,0,0,0,0,0,0,0,0,0,0,0,0,0,0,0,0,0,0,0,0,0,0,0,0,0,0,0,0,0,0,0,-7.2269,-7.227,0,-7.2363,-7.2364,-7.2365,-7.2295,-7.2292,-7.2289,-7.2286,-7.2378,-7.2383,-7.2388,0,0,0,0,0,0,0,0,0,0,0,0,0,-7.2025,-7.2029,-7.2269,-7.227,-7.2271,-7.2363,-7.2364,-7.2365,-7.2295,-7.2292,-7.2288,-7.2285,-7.2376,-7.2382,-7.2389,0,0,0,0,0,0,0,0,0,0,0,0,0,-7.2126,-7.2031,-7.2269,-7.2247,-7.2246,-7.2363,-7.2364,-7.2366,-7.2296,-7.2292,-7.2287,-7.2283,-7.2374,-7.2382,-7.239,-7.253,0,0,-7.2414,-7.2417,0,0,0,0,0,0,0,0,-7.212,-7.2135,-7.2249,-7.2249,-7.2248,-7.2313,-7.2312,-7.2421,-7.2297,-7.2277,-7.2286,-7.2281,-7.236,-7.2368,-7.2396,-7.2535,-7.2538,-7.2414,-7.2419,-7.2423,-7.2425,0,0,0,0,0,0,0,-7.2113,-7.213,-7.2306,-7.2251,-7.225,-7.2232,-7.2241,-7.2332,-7.2343,-7.2279,-7.2274,-7.2286,-7.2358,-7.2388,-7.2398,-7.254,-7.2414,-7.2421,-7.2426,-7.2429,-7.2797,-7.2802,0,0,0,0,0,0,-7.2109,-7.2125,-7.2303,-7.2309,-7.2172,-7.224,-7.2251,-7.2297,-7.2342,-7.2344,-7.229,-7.2282,-7.2377,-7.2388,-7.2401,-7.2566,-7.2423,-7.243,-7.2435,-7.2792,-7.2798,-7.2803,0,0,0,0,0,0,-7.2104,-7.2125,-7.2299,-7.2216,-7.2236,-7.2249,-7.2301,-7.2301,-7.2331,-7.235,-7.2351,-7.2319,-7.2374,-7.2389,-7.2498,-7.2568,-7.2434,-7.2441,-7.2786,-7.2794,-7.2801,-7.2899,0,0,0,0,0,0,-7.2097,-7.2124,-7.2178,-7.2218,-7.2241,-7.2397,-7.2306,-7.2306,-7.2345,-7.2336,-7.2378,-7.238,-7.2372,-7.2487,-7.2506,-7.2577,-7.2447,-7.278,-7.279,-7.2798,-7.2889,-7.2909,-7.2926,0,0,0,0,0,-7.2089,-7.2201,-7.2181,-7.2203,-7.231,-7.2401,-7.2414,-7.2403,-7.2351,-7.2405,-7.2418,-7.2379,-7.2559,-7.2499,-7.252,-7.2594,-7.2775,-7.2787,-7.2798,-7.2881,-7.2905,-7.2925,0,0,0,0,0,0,-7.2168,-7.2206,-7.2184,-7.2313,-7.2355,-7.2389,-7.2456,-7.2429,-7.2485,-7.2474,-7.2457,-7.2467,-7.2581,-7.2599,-7.2531,-7.2732,-7.2658,-7.2674,-7.2715,-7.2737,-7.2755,-7.2746,-7.2454,0,0,0,0,0,-7.2201,-7.2274,-7.2303,-7.2414,-7.2436,-7.2443,-7.2482,-7.2471,-7.2512,-7.2529,-7.2549,-7.259,-7.2655,-7.2698,-7.2759,-7.2894,-7.29,-7.2955,-7.2973,-7.2988,-7.3,-7.307,-7.3094,-7.284,-7.284,-7.284,0,0,-7.2269,-7.2299,-7.2345,-7.243,-7.2461,-7.2534,-7.2458,-7.2539,-7.2593,-7.254,-7.2644,-7.2661,-7.2705,-7.2827,-7.2882,-7.2845,-7.3073,-7.3002,-7.3014,-7.3018,-7.3084,-7.3108,-7.313,-7.2848,-7.2847,-7.2846,0,0,-7.2429,-7.2461,-7.2555,-7.2588,-7.2636,-7.2641,-7.2664,-7.2703,-7.2712,-7.2817,-7.2779,-7.2843,-7.2957,-7.2989,-7.302,-7.3196,-7.3161,-7.3217,-7.3309,-7.3377,-7.3397,-7.3415,-7.3474,-7.3496,-7.323,-7.323,-7.3231,0,-7.2506,-7.2617,-7.2607,-7.2691,-7.2729,-7.2688,-7.2783,-7.2815,-7.288,-7.2906,-7.2866,-7.3008,-7.3035,-7.3162,-7.3205,-7.3234,-7.3257,-7.3209,-7.3396,-7.3413,-7.3429,-7.3485,-7.3508,-7.3236,-7.3236,-7.3235,-7.3235,0,-7.2708,-7.2785,-7.2856,-7.2921,-7.2968,-7.3057,-7.306,-7.3108,-7.3094,-7.3102,-7.3208,-7.324,-7.3306,-7.3337,-7.3324,-7.3463,-7.3439,-7.3398,-7.3323,-7.346,-7.3512,-7.3533,-7.3245,-7.3243,-7.3241,-7.324,0,0,-7.2916,-7.2977,-7.3002,-7.3031,-7.3082,-7.3141,-7.3229,-7.3296,-7.3335,-7.3383,-7.3454,-7.3553,-7.3515,-7.3551,-7.3541,-7.3602,-7.3735,-7.3553,-7.3554,-7.3582,-7.3888,-7.3915,-7.394,-7.3715,-7.3719,-7.3723,-7.3883,0,-7.3075,-7.3228,-7.3223,-7.3365,-7.3435,-7.3399,-7.3474,-7.3514,-7.3525,-7.3585,-7.3597,-7.3666,-7.3613,-7.3634,-7.3693,-7.3707,-7.3796,-7.3696,-7.3777,-7.3781,-7.3763,-7.3968,-7.3997,-7.4146,-7.3903,-7.3907,-7.391,0,-7.328,-7.3336,-7.3485,-7.3526,-7.3555,-7.3623,-7.3683,-7.3743,-7.3786,-7.379,-7.3832,-7.3813,-7.39,-7.3827,-7.3946,-7.3878,-7.3912,-7.3924,-7.393,-7.3932,-7.385,-7.3972,-7.4194,-7.4214,-7.3942,-7.394,-7.3937,0,-7.3412,-7.3525,-7.3628,-7.3654,-7.3705,-7.3754,-7.3777,-7.3817,-7.3857,-7.391,-7.3936,-7.3999,-7.4032,-7.408,-7.4078,-7.4026,-7.4197,-7.4125,-7.42,-7.42,-7.4233,-7.423,-7.4458,-7.4264,-7.4263,-7.4263,-7.4262,0,-7.3588,-7.3679,-7.3688,-7.375,-7.3852,-7.3846,-7.3946,-7.3965,-7.4,-7.4065,-7.4039,-7.41,-7.4096,-7.4158,-7.4157,-7.4253,-7.427,-7.4273,-7.4271,-7.4273,-7.4272,-7.4291,-7.4279,-7.4269,-7.4267,-7.4266,-7.4265,0,-7.375,-7.376,-7.3869,-7.391,-7.3922,-7.3994,-7.4028,-7.4087,-7.4098,-7.418,-7.4199,-7.4215,-7.4286,-7.429,-7.4373,-7.4372,-7.4488,-7.4477,-7.4473,-7.447,-7.4543,-7.4534,-7.4788,-7.4819,-7.4608,-7.461,-7.4612,0,-7.3859,-7.3928,-7.3977,-7.4019,-7.4046,-7.4114,-7.4156,-7.4154,-7.4198,-7.4253,-7.4305,-7.4375,-7.4429,-7.4545,-7.4563,-7.4626,-7.4613,-7.4698,-7.4621,-7.4621,-7.4609,-7.4603,-7.4608,-7.471,-7.4713,-7.4715,-7.4716,0,-7.405,-7.4052,-7.4113,-7.4177,-7.4227,-7.4277,-7.4323,-7.4359,-7.4362,-7.4413,-7.4487,-7.453,-7.4614,-7.4682,-7.4744,-7.4767,-7.4741,-7.4741,-7.4761,-7.4761,-7.4754,-7.4755,-7.4509,-7.4734,-7.4732,-7.4731,-7.473,-7.4729,-7.4185,-7.4245,-7.4289,-7.4358,-7.4393,-7.4437,-7.4494,-7.4513,-7.4575,-7.4644,-7.464,-7.472,-7.4762,-7.4842,-7.487,-7.4932,-7.4903,-7.4933,-7.494,-7.4946,-7.4952,-7.4749,-7.4944,-7.4944,-7.4943,-7.4943,-7.4943,0,-7.4371,-7.4398,-7.4463,-7.4529,-7.4583,-7.4559,-7.4609,-7.4655,-7.4726,-7.4769,-7.4824,-7.4908,-7.4975,-7.4999,-7.5064,-7.5109,-7.5098,-7.5125,-7.5119,-7.5124,-7.4976,-7.495,-7.5132,-7.5132,-7.5132,-7.5132,-7.5132,-7.5132,-7.4474,-7.4573,-7.4581,-7.4696,-7.4722,-7.4802,-7.4832,-7.4873,-7.4906,-7.5001,-7.5057,-7.5074,-7.5108,-7.5175,-7.5235,-7.5241,-7.5263,-7.5294,-7.5294,-7.5154,-7.5135,-7.5116,-7.5092,-7.5301,-7.5301,-7.5437,-7.5438,-7.5439]},{"header":{"parameterUnit":"m.s-1","parameterCategory":1,"la1":30.2991,"la2":30.254,"lo1":-89.0895,"lo2":-89.0444,"dy":0.0017,"dx":0.0017,"nx":28,"ny":28,"refTime":"2024-04-28T03:00:00:Z","depth":0,"parameterNumber":3,"parameterNumberName":"V-component_of_WINDS"},"data":[0,0,0,0,0,0,0,0,0,0,0,0,0,0,0,0,0,0,0,0,0,0,0,0,0,0,0,0,0,0,0,0,0,0,0,0,0,0,0,0,0,0,0,0,0,0,0,0,0,0,0,0,0,0,0,0,0,0,3.811,3.8111,0,3.8145,3.8145,3.8146,3.8103,3.8102,3.81,3.8099,3.813,3.8133,3.8135,0,0,0,0,0,0,0,0,0,0,0,0,0,3.8005,3.8007,3.811,3.8111,3.8111,3.8145,3.8145,3.8146,3.8104,3.8102,3.81,3.8098,3.813,3.8132,3.8135,0,0,0,0,0,0,0,0,0,0,0,0,0,3.8046,3.8008,3.811,3.8094,3.8093,3.8145,3.8145,3.8146,3.8104,3.8102,3.8099,3.8097,3.8129,3.8132,3.8135,3.8203,0,0,3.8146,3.8147,0,0,0,0,0,0,0,0,3.8044,3.805,3.8096,3.8095,3.8094,3.8118,3.812,3.8165,3.8105,3.81,3.8099,3.8096,3.8128,3.8131,3.8143,3.8205,3.8206,3.8146,3.8148,3.815,3.8151,0,0,0,0,0,0,0,3.8041,3.8048,3.8124,3.8097,3.8096,3.8085,3.8088,3.8128,3.8126,3.81,3.8097,3.8102,3.8127,3.8139,3.8143,3.8206,3.8146,3.8149,3.8151,3.8153,3.8327,3.8329,0,0,0,0,0,0,3.8041,3.8046,3.8123,3.8125,3.8063,3.8088,3.8092,3.8112,3.8126,3.8126,3.8104,3.81,3.8135,3.8139,3.8144,3.8224,3.815,3.8153,3.8155,3.8324,3.8327,3.833,0,0,0,0,0,0,3.8039,3.8048,3.8121,3.8085,3.8093,3.8093,3.8116,3.8114,3.8127,3.8129,3.8128,3.8117,3.8133,3.8139,3.8189,3.8225,3.8155,3.8158,3.8321,3.8325,3.8329,3.8385,0,0,0,0,0,0,3.8036,3.8047,3.8073,3.8086,3.8096,3.8167,3.8118,3.8117,3.8133,3.8128,3.8141,3.8141,3.8132,3.8184,3.8193,3.8228,3.816,3.8318,3.8323,3.8327,3.838,3.8391,3.84,0,0,0,0,0,3.8032,3.8087,3.8075,3.8084,3.8128,3.8169,3.8174,3.8164,3.8136,3.8162,3.8164,3.814,3.822,3.819,3.8199,3.8236,3.8316,3.8321,3.8327,3.8376,3.8389,3.8399,0,0,0,0,0,0,3.8076,3.8088,3.8075,3.8136,3.8152,3.8162,3.8194,3.8177,3.82,3.8195,3.818,3.8183,3.8236,3.8241,3.8207,3.8303,3.8263,3.8271,3.8297,3.8309,3.8319,3.8316,3.8163,0,0,0,0,0,3.8094,3.8127,3.8135,3.8188,3.8197,3.8194,3.8211,3.8202,3.8218,3.8224,3.8229,3.8244,3.8273,3.8291,3.8318,3.8382,3.8383,3.8412,3.8421,3.8429,3.8436,3.847,3.8483,3.8349,3.8349,3.8349,0,0,3.8129,3.8139,3.8161,3.8197,3.8208,3.8242,3.82,3.8237,3.8262,3.8229,3.8277,3.8282,3.8298,3.8355,3.8381,3.8361,3.8473,3.8437,3.8443,3.8445,3.8477,3.849,3.8501,3.8353,3.8352,3.8352,0,0,3.821,3.8222,3.8267,3.828,3.8299,3.8298,3.8309,3.8322,3.8324,3.8373,3.8349,3.8378,3.8427,3.844,3.8453,3.8542,3.8521,3.8551,3.86,3.8634,3.8645,3.8654,3.8685,3.8697,3.8558,3.8558,3.8558,0,3.8251,3.8302,3.8292,3.8332,3.8349,3.8323,3.8369,3.8382,3.8407,3.8419,3.8397,3.846,3.8468,3.8529,3.8551,3.8562,3.8574,3.8548,3.8644,3.8654,3.8662,3.8692,3.8704,3.8561,3.8561,3.856,3.856,0,3.8351,3.8387,3.8422,3.8449,3.847,3.8512,3.8509,3.8531,3.8521,3.8521,3.8571,3.8582,3.861,3.8624,3.8613,3.8683,3.867,3.8647,3.8606,3.8678,3.8706,3.8717,3.8566,3.8565,3.8564,3.8563,0,0,3.8458,3.8483,3.8495,3.8508,3.8528,3.8555,3.8597,3.8627,3.8646,3.8665,3.8699,3.8743,3.8722,3.8737,3.8728,3.8758,3.8828,3.873,3.873,3.8747,3.8905,3.8922,3.8935,3.8815,3.8817,3.8819,3.8903,0,3.8539,3.8613,3.8607,3.8676,3.8709,3.8687,3.8723,3.8739,3.8742,3.8769,3.8771,3.8803,3.8773,3.8782,3.881,3.8813,3.8859,3.8807,3.8845,3.8847,3.8841,3.895,3.8967,3.9046,3.8914,3.8916,3.8917,0,3.8643,3.8669,3.8742,3.8758,3.8772,3.8805,3.8832,3.886,3.8877,3.8877,3.8895,3.8882,3.8923,3.8884,3.8941,3.8906,3.8921,3.8925,3.8928,3.893,3.8885,3.8953,3.9071,3.9083,3.8934,3.8933,3.8932,0,3.8714,3.8766,3.8817,3.8829,3.8849,3.8873,3.8883,3.8899,3.8917,3.8941,3.8953,3.898,3.8995,3.9017,3.9011,3.8983,3.9069,3.9029,3.9069,3.9069,3.9087,3.9085,3.9208,3.9099,3.9099,3.9099,3.9099,0,3.8804,3.8849,3.8849,3.888,3.893,3.8923,3.8973,3.8979,3.8994,3.9026,3.9008,3.9037,3.9029,3.9058,3.9054,3.9102,3.9109,3.9109,3.9107,3.911,3.911,3.9118,3.9112,3.9102,3.9101,3.9101,3.91,0,3.889,3.8892,3.8946,3.8962,3.8968,3.9004,3.9017,3.9046,3.9049,3.9089,3.9098,3.9101,3.9134,3.9132,3.9169,3.9166,3.9225,3.9217,3.9219,3.9217,3.9257,3.9253,3.9388,3.9405,3.9287,3.9288,3.9289,0,3.8947,3.8982,3.9003,3.9024,3.9036,3.9069,3.9089,3.9083,3.9104,3.9129,3.9155,3.9188,3.9213,3.9268,3.9272,3.9301,3.9293,3.9339,3.9297,3.9299,3.9293,3.929,3.9294,3.9346,3.9347,3.9349,3.9349,0,3.9048,3.9048,3.9077,3.9108,3.9133,3.9156,3.9178,3.9195,3.9192,3.9217,3.9252,3.9272,3.9312,3.9344,3.9372,3.9381,3.9365,3.9363,3.9374,3.9376,3.9376,3.9376,3.924,3.9359,3.9358,3.9358,3.9357,3.9357,3.912,3.9151,3.9171,3.9205,3.9222,3.9243,3.9271,3.9278,3.9308,3.9341,3.9336,3.9375,3.9393,3.9429,3.9441,3.9471,3.9455,3.947,3.9474,3.9478,3.9482,3.9373,3.9476,3.9476,3.9476,3.9476,3.9475,0,3.922,3.9233,3.9264,3.9296,3.9323,3.9308,3.9332,3.9355,3.939,3.941,3.9436,3.9477,3.9509,3.9517,3.9548,3.957,3.9564,3.9578,3.9576,3.9578,3.9495,3.9483,3.9583,3.9583,3.9583,3.9583,3.9583,3.9583,3.9275,3.9325,3.9328,3.9387,3.9399,3.9439,3.9453,3.9473,3.9488,3.9535,3.9562,3.9568,3.9583,3.9615,3.9643,3.9645,3.9657,3.9674,3.9673,3.9595,3.9584,3.9573,3.9562,3.9677,3.9677,3.9753,3.9753,3.9754]}]]